Terminal Aerodrome Forecast
Issued by NWS Sioux Falls, SD

Home | Current Version | Previous Version | Graphics & Text | Print | Product List | Glossary On
Versions: 1 2 3 4 5 6 7 8 9 10 11 12 13 14 15 16 17 18 19 20 21 22 23 24 25 26 27 28 29 30 31 32 33 34
000
FTUS43 KFSD 230522
TAFSUX
TAF
KSUX 230522Z 2306/2406 VRB03KT P6SM SCT090
     FM231000 09005KT P6SM SCT090
     FM231600 15012KT P6SM SKC
     FM240100 13010KT P6SM BKN120=

USA.gov is the U.S. government's official web portal to all federal, state and local government web resources and services.